When you browse on this site, cookies collect data to enhance your experience and personalize the content and advertising you see.
Visit our Privacy Policy to learn more. By continuing to use the site, you agree to this use of cookies and data.
  • En España
  • Lista de países
  • Para 7 días
  • Temperatura del agua
  • El tiempo en el mapa
  • Informadores
  • user-avatar
    Iniciar sesión

    Tiempo cada hora Arkalyk

    Hoy, 29 Mayo, Viernes

    Tiempo Temperatura Precipitaciones Viento Presión Humedad
    00:00 +19°C° 0 mm 4 mps 733 mmHg 35%
    01:00 +18°C° 0 mm 4 mps 733 mmHg 36%
    02:00 +18°C° 0 mm 4 mps 733 mmHg 37%
    03:00 +17°C° 0 mm 3 mps 733 mmHg 39%
    04:00 +17°C° 0 mm 3 mps 733 mmHg 40%
    05:00 +19°C° 0 mm 3 mps 733 mmHg 37%
    06:00 +21°C° 0 mm 3 mps 733 mmHg 34%
    07:00 +24°C° 0 mm 3 mps 733 mmHg 31%
    08:00 +25°C° 0 mm 3 mps 733 mmHg 27%
    09:00 +26°C° 0 mm 2 mps 733 mmHg 23%
    10:00 +28°C° 0 mm 2 mps 733 mmHg 20%
    11:00 +29°C° 0 mm 1 mps 733 mmHg 19%
    12:00 +29°C° 0 mm 1 mps 732 mmHg 18%
    13:00 +30°C° 0 mm 1 mps 732 mmHg 16%
    14:00 +30°C° 0 mm 1 mps 732 mmHg 16%
    15:00 +29°C° 0 mm 0 mps 732 mmHg 16%
    16:00 +29°C° 0 mm 0 mps 731 mmHg 15%
    17:00 +28°C° 0 mm 0 mps 731 mmHg 20%
    18:00 +28°C° 0 mm 1 mps 731 mmHg 25%
    19:00 +27°C° 0 mm 1 mps 731 mmHg 30%
    20:00 +26°C° 0 mm 1 mps 731 mmHg 30%
    21:00 +25°C° 0 mm 2 mps 731 mmHg 29%
    22:00 +24°C° 0 mm 2 mps 730 mmHg 29%
    23:00 +24°C° 0 mm 2 mps 731 mmHg 30%

    Mañana, 30 Mayo, Sábado

    Tiempo Temperatura Precipitaciones Viento Presión Humedad
    00:00 +23°C° 0 mm 2 mps 731 mmHg 30%
    01:00 +22°C° 0 mm 3 mps 731 mmHg 31%
    02:00 +21°C° 0 mm 3 mps 731 mmHg 34%
    03:00 +21°C° 0 mm 3 mps 731 mmHg 38%
    04:00 +20°C° 0 mm 3 mps 731 mmHg 41%
    05:00 +22°C° 0 mm 3 mps 731 mmHg 39%
    06:00 +24°C° 0 mm 3 mps 732 mmHg 37%
    07:00 +26°C° 0 mm 3 mps 732 mmHg 34%
    08:00 +27°C° 0 mm 2 mps 732 mmHg 31%
    09:00 +29°C° 0 mm 2 mps 732 mmHg 27%
    10:00 +30°C° 0 mm 2 mps 732 mmHg 23%
    11:00 +31°C° 0 mm 1 mps 732 mmHg 22%
    12:00 +32°C° 0 mm 1 mps 732 mmHg 22%
    13:00 +33°C° 0 mm 1 mps 732 mmHg 21%
    14:00 +33°C° 0 mm 1 mps 732 mmHg 20%
    15:00 +33°C° 0 mm 1 mps 732 mmHg 19%
    16:00 +32°C° 0 mm 0 mps 732 mmHg 19%
    17:00 +32°C° 0 mm 1 mps 731 mmHg 24%
    18:00 +31°C° 0 mm 1 mps 731 mmHg 28%
    19:00 +30°C° 0 mm 1 mps 731 mmHg 33%
    20:00 +29°C° 0 mm 2 mps 731 mmHg 34%
    21:00 +28°C° 0 mm 3 mps 731 mmHg 35%
    22:00 +27°C° 0 mm 4 mps 731 mmHg 35%
    23:00 +26°C° 0 mm 4 mps 731 mmHg 36%

    Pasado mañana, 31 Mayo, Domingo

    Tiempo Temperatura Precipitaciones Viento Presión Humedad
    00:00 +26°C° 0 mm 4 mps 730 mmHg 36%
    01:00 +25°C° 0 mm 4 mps 730 mmHg 36%
    02:00 +25°C° 0 mm 5 mps 730 mmHg 35%
    03:00 +25°C° 0 mm 5 mps 730 mmHg 35%
    04:00 +24°C° 0 mm 6 mps 729 mmHg 35%
    05:00 +27°C° 0 mm 6 mps 729 mmHg 33%
    06:00 +28°C° 0 mm 7 mps 729 mmHg 31%
    07:00 +30°C° 0 mm 7 mps 729 mmHg 29%
    08:00 +32°C° 0 mm 8 mps 729 mmHg 25%
    09:00 +34°C° 0 mm 8 mps 729 mmHg 21%
    10:00 +37°C° 0 mm 9 mps 729 mmHg 16%
    11:00 +37°C° 0 mm 10 mps 729 mmHg 16%
    12:00 +38°C° 0 mm 10 mps 729 mmHg 16%
    13:00 +39°C° 0 mm 10 mps 729 mmHg 16%
    14:00 +38°C° 0 mm 9 mps 729 mmHg 17%
    15:00 +38°C° 0 mm 9 mps 728 mmHg 19%
    16:00 +37°C° 0 mm 8 mps 728 mmHg 21%
    17:00 +35°C° 0 mm 6 mps 728 mmHg 26%
    18:00 +33°C° 0 mm 4 mps 728 mmHg 31%
    19:00 +31°C° 0 mm 2 mps 728 mmHg 36%
    20:00 +30°C° 0 mm 3 mps 728 mmHg 35%
    21:00 +30°C° 0 mm 3 mps 728 mmHg 35%
    22:00 +29°C° 0 mm 4 mps 727 mmHg 34%
    23:00 +28°C° 0 mm 4 mps 728 mmHg 34%

    1 Junio, Lunes

    Tiempo Temperatura Precipitaciones Viento Presión Humedad
    00:00 +27°C° 0 mm 5 mps 728 mmHg 34%
    01:00 +27°C° 0 mm 6 mps 728 mmHg 35%
    02:00 +26°C° 0 mm 5 mps 728 mmHg 44%
    03:00 +23°C° 0 mm 4 mps 728 mmHg 54%
    04:00 +22°C° 0 mm 3 mps 727 mmHg 64%
    05:00 +25°C° 0 mm 3 mps 728 mmHg 59%
    06:00 +26°C° 0 mm 4 mps 728 mmHg 55%
    07:00 +28°C° 0 mm 4 mps 728 mmHg 50%
    08:00 +29°C° 0 mm 5 mps 728 mmHg 46%
    09:00 +30°C° 0 mm 6 mps 728 mmHg 42%
    10:00 +32°C° 0 mm 6 mps 729 mmHg 39%
    11:00 +32°C° 0 mm 6 mps 729 mmHg 37%
    12:00 +32°C° 0 mm 5 mps 729 mmHg 36%
    13:00 +33°C° 0 mm 4 mps 729 mmHg 35%
    14:00 +33°C° 0 mm 4 mps 729 mmHg 34%
    15:00 +33°C° 0 mm 4 mps 729 mmHg 33%
    16:00 +33°C° 0 mm 4 mps 729 mmHg 32%
    17:00 +30°C° 0 mm 3 mps 729 mmHg 35%
    18:00 +29°C° 0 mm 3 mps 729 mmHg 38%
    19:00 +28°C° 0 mm 2 mps 728 mmHg 42%
    20:00 +27°C° 0.1 mm 3 mps 729 mmHg 44%
    21:00 +26°C° 0.1 mm 5 mps 729 mmHg 46%
    22:00 +24°C° 0.1 mm 6 mps 729 mmHg 49%
    23:00 +23°C° 0.4 mm 5 mps 729 mmHg 53%

    2 Junio, Martes

    Tiempo Temperatura Precipitaciones Viento Presión Humedad
    00:00 +22°C° 0.4 mm 4 mps 729 mmHg 58%
    01:00 +21°C° 0.4 mm 4 mps 729 mmHg 63%
    02:00 +21°C° 0.4 mm 3 mps 729 mmHg 66%
    03:00 +20°C° 0.4 mm 3 mps 729 mmHg 68%
    04:00 +20°C° 0.4 mm 2 mps 729 mmHg 71%
    05:00 +21°C° 0.3 mm 3 mps 729 mmHg 69%
    06:00 +21°C° 0.3 mm 4 mps 729 mmHg 68%
    07:00 +21°C° 0.3 mm 5 mps 729 mmHg 66%
    08:00 +23°C° 0 mm 4 mps 729 mmHg 59%
    09:00 +26°C° 0 mm 3 mps 729 mmHg 52%
    10:00 +28°C° 0 mm 2 mps 729 mmHg 45%
    11:00 +29°C° 0 mm 2 mps 729 mmHg 42%
    12:00 +30°C° 0 mm 2 mps 729 mmHg 39%
    13:00 +31°C° 0 mm 1 mps 729 mmHg 36%
    14:00 +31°C° 0 mm 2 mps 728 mmHg 36%
    15:00 +31°C° 0 mm 3 mps 728 mmHg 35%
    16:00 +32°C° 0 mm 4 mps 728 mmHg 35%
    17:00 +30°C° 0 mm 4 mps 728 mmHg 38%
    18:00 +29°C° 0 mm 4 mps 728 mmHg 41%
    19:00 +28°C° 0 mm 3 mps 728 mmHg 44%
    20:00 +27°C° 0 mm 4 mps 728 mmHg 43%
    21:00 +26°C° 0 mm 4 mps 728 mmHg 41%
    22:00 +23°C° 0 mm 4 mps 728 mmHg 40%
    23:00 +23°C° 0 mm 4 mps 728 mmHg 41%

    3 Junio, Miércoles

    Tiempo Temperatura Precipitaciones Viento Presión Humedad
    00:00 +22°C° 0 mm 4 mps 728 mmHg 42%
    01:00 +21°C° 0 mm 4 mps 728 mmHg 43%
    02:00 +21°C° 0 mm 4 mps 728 mmHg 44%
    03:00 +20°C° 0 mm 4 mps 728 mmHg 44%
    04:00 +20°C° 0 mm 4 mps 727 mmHg 45%
    05:00 +21°C° 0 mm 5 mps 728 mmHg 43%
    06:00 +22°C° 0 mm 5 mps 728 mmHg 41%
    07:00 +25°C° 0 mm 5 mps 728 mmHg 39%
    08:00 +26°C° 0 mm 5 mps 728 mmHg 37%
    09:00 +27°C° 0 mm 5 mps 728 mmHg 34%
    10:00 +29°C° 0 mm 5 mps 728 mmHg 31%
    11:00 +29°C° 0 mm 5 mps 728 mmHg 30%
    12:00 +30°C° 0 mm 4 mps 728 mmHg 29%
    13:00 +30°C° 0 mm 4 mps 728 mmHg 28%
    14:00 +30°C° 0 mm 4 mps 727 mmHg 28%
    15:00 +30°C° 0 mm 4 mps 727 mmHg 27%
    16:00 +30°C° 0 mm 3 mps 727 mmHg 27%
    17:00 +29°C° 0 mm 4 mps 727 mmHg 30%
    18:00 +28°C° 0 mm 4 mps 727 mmHg 34%
    19:00 +27°C° 0 mm 5 mps 727 mmHg 37%
    20:00 +26°C° 0 mm 5 mps 727 mmHg 39%
    21:00 +23°C° 0 mm 5 mps 727 mmHg 41%
    22:00 +22°C° 0 mm 5 mps 727 mmHg 43%
    23:00 +22°C° 0 mm 6 mps 727 mmHg 47%
    Mostrar más